Dallas/Ft Worth, TX

4:42 AM CDT on March 26, 2017 (GMT -0500)
Dallas-Fort Worth International

Weather History for KDFW - August, 2013

Change the Weather History Date:

Thursday, August 22, 2013

  Actual Average Record
Temperature  
Mean Temperature 88 °F 85 °F  
Max Temperature 98 °F 96 °F 105 °F (1980)
Min Temperature 77 °F 75 °F 61 °F (1956)
Degree Days  
Heating Degree Days 0 0  
Month to date heating degree days 0 0  
Since 1 June heating degree days 0 0  
Since 1 July heating degree days 0 0  
Cooling Degree Days 23 20  
Month to date cooling degree days 484 460  
Year to date cooling degree days 2020 2004  
Since 1 June cooling degree days 1631 1582  
Growing Degree Days 38 (Base 50)    
Moisture  
Dew Point 65 °F    
Average Humidity 52    
Maximum Humidity 71    
Minimum Humidity 33    
Precipitation  
Precipitation 0.00 in 0.06 in 2.47 in (1916)
Month to date precipitation 1.18 1.23  
Year to date precipitation 18.53 23.43  
Sea Level Pressure  
Sea Level Pressure 29.99 in    
Wind  
Wind Speed 7 mph (South)    
Max Wind Speed 14 mph    
Max Gust Speed 18 mph    
Visibility 10 miles    
Events      
T = Trace of Precipitation, MM = Missing Value Source: NWS Daily Summary

Daily Weather History Graph

Daily Weather History Graph

Search for Another Location

Airport or City:

Trip Planner

Search our weather history database for the weather conditions in past years. The results will help you decide how hot, cold, wet, or windy it might be!

Date:

Astronomy

Aug. 22, 2013 Rise Set
Actual Time 6:56 AM CDT 8:05 PM CDT
Civil Twilight 6:30 AM CDT 8:30 PM CDT
Nautical Twilight 6:00 AM CDT 9:01 PM CDT
Astronomical Twilight 5:28 AM CDT 9:32 PM CDT
Moon 9:00 PM CDT (8/22) 8:37 AM CDT (8/22)
Length of Visible Light 13h 59m
Length of Day
13h 08m
Waning Gibbous, 96% of the Moon is Illuminated
Aug 22
Waning Gibbous
Aug 28
Last Quarter
Sep 5
New
Sep 12
First Quarter
Sep 19
Full

Hourly Weather History & Observations

Time (CDT) Temp. Heat Index Dew Point Humidity Pressure Visibility Wind Dir Wind Speed Gust Speed Precip Events Conditions
12:53 AM 81.0 °F 82.5 °F 64.0 °F 56% 30.00 in 10.0 mi South 4.6 mph - N/A   Partly Cloudy
1:53 AM 80.1 °F 81.7 °F 64.0 °F 58% 29.99 in 10.0 mi Calm Calm - N/A   Partly Cloudy
2:53 AM 81.0 °F 82.5 °F 64.0 °F 56% 29.99 in 10.0 mi South 9.2 mph - N/A   Partly Cloudy
3:53 AM 79.0 °F - 66.0 °F 64% 29.99 in 10.0 mi South 8.1 mph - N/A   Clear
4:53 AM 79.0 °F - 66.0 °F 64% 30.01 in 10.0 mi South 6.9 mph - N/A   Partly Cloudy
5:53 AM 78.1 °F - 66.9 °F 68% 30.02 in 10.0 mi South 3.5 mph - N/A   Mostly Cloudy
6:53 AM 78.1 °F - 68.0 °F 71% 30.03 in 10.0 mi SSE 4.6 mph - N/A   Mostly Cloudy
7:53 AM 80.1 °F 82.9 °F 69.1 °F 69% 30.05 in 10.0 mi South 6.9 mph - N/A   Mostly Cloudy
8:53 AM 82.0 °F 85.5 °F 69.1 °F 65% 30.06 in 10.0 mi South 8.1 mph - N/A   Mostly Cloudy
9:53 AM 86.0 °F 90.1 °F 69.1 °F 57% 30.06 in 10.0 mi South 8.1 mph - N/A   Scattered Clouds
10:53 AM 88.0 °F 91.4 °F 68.0 °F 51% 30.06 in 10.0 mi SSW 8.1 mph - N/A   Mostly Cloudy
11:53 AM 91.0 °F 93.8 °F 66.0 °F 44% 30.05 in 10.0 mi SSW 10.4 mph - N/A   Scattered Clouds
12:53 PM 93.0 °F 95.9 °F 66.0 °F 41% 30.02 in 10.0 mi SSW 10.4 mph - N/A   Scattered Clouds
1:53 PM 93.9 °F 96.1 °F 64.9 °F 38% 30.00 in 10.0 mi SSW 10.4 mph - N/A   Scattered Clouds
2:53 PM 95.0 °F 97.0 °F 64.0 °F 36% 29.98 in 10.0 mi SE 9.2 mph - N/A   Mostly Cloudy
3:53 PM 98.1 °F 100.7 °F 64.0 °F 33% 29.95 in 10.0 mi SE 5.8 mph - N/A   Scattered Clouds
4:53 PM 97.0 °F 99.3 °F 64.0 °F 34% 29.93 in 10.0 mi SSW 6.9 mph - N/A   Scattered Clouds
5:53 PM 97.0 °F 97.4 °F 61.0 °F 30% 29.91 in 10.0 mi SW 8.1 mph - N/A   Scattered Clouds
6:53 PM 95.0 °F 95.6 °F 62.1 °F 33% 29.90 in 10.0 mi South 3.5 mph - N/A   Partly Cloudy
7:53 PM 93.9 °F 95.2 °F 63.0 °F 36% 29.90 in 10.0 mi SE 3.5 mph - N/A   Partly Cloudy
8:53 PM 90.0 °F 91.3 °F 64.0 °F 42% 29.93 in 10.0 mi ESE 6.9 mph - N/A   Partly Cloudy
9:53 PM 91.0 °F 93.0 °F 64.9 °F 42% 29.95 in 10.0 mi SSE 9.2 mph - N/A   Mostly Cloudy
10:53 PM 88.0 °F 90.3 °F 66.0 °F 48% 29.96 in 10.0 mi SE 6.9 mph - N/A   Partly Cloudy
11:53 PM 87.1 °F 89.2 °F 66.0 °F 49% 29.96 in 10.0 mi SE 9.2 mph - N/A   Partly Cloudy